This demonstration page uses our WeatherBlox Daily Observations layout. Learn more.

Left ArrowRight Arrow

Hourly Observations for March 19, 2015

Temp ( °F °C ) Dew Point ( °F °C ) Humidity (%) Winds ( mph kmh ) Pressure ( in mb ) Visibility ( mi km ) Precip ( " mm )
12:53 am 00:53 Clear 58 14.4 37 2.8 46 46 NW 8 13 30.04 1017 10 16 0.00 0.00
1:53 am 01:53 Clear 59 15 37 2.8 44 44 NNW 6 9 30.04 1017 10 16 0.00 0.00
2:53 am 02:53 Clear 58 14.4 36 2.2 44 44 NW 5 7 30.04 1017 10 16 0.00 0.00
3:53 am 03:53 Clear 58 14.4 35 1.7 42 42 undefined N/A 30.04 1017 10 16 0.00 0.00
4:53 am 04:53 Clear 57 13.9 36 2.2 45 45 NW 6 9 30.04 1017 10 16 0.00 0.00
5:53 am 05:53 Clear 54 12.2 36 2.2 51 51 N 3 6 30.04 1017 10 16 0.00 0.00
6:53 am 06:53 Clear 51 10.6 37 2.8 59 59 Calm 30.04 1017 10 16 0.00 0.00
7:53 am 07:53 Sunny 54 12 36 2 51 51 NNW 3 6 30.06 1018 10 16 0.00 0.00
8:53 am 08:53 Sunny 61 16.1 40 4.4 46 46 Calm 30.05 1018 10 16 0.00 0.00
9:53 am 09:53 Sunny 67 19.4 39 3.9 36 36 N 7 11 30.04 1017 10 16 0.00 0.00
10:53 am 10:53 Sunny 72 22.2 35 1.7 26 26 N 10 17 30.04 1017 10 16 0.00 0.00
11:53 am 11:53 Sunny 75 23.9 37 2.8 25 25 NNE 10 17 30.02 1017 10 16 0.00 0.00
12:53 pm 12:53 Sunny 78 25.6 36 2.2 22 22 VRB 5 7 30.00 1016 10 16 0.00 0.00
1:53 pm 13:53 Sunny 80 26.7 35 1.7 20 20 N 7 11 29.98 1015 10 16 0.00 0.00
2:53 pm 14:53 Sunny 82 27.8 31 -0.6 16 16 NE 3 6 29.96 1015 10 16 0.00 0.00
3:53 pm 15:53 Sunny 83 28.3 31 -0.6 15 15 NNE 6 9 29.94 1014 10 16 0.00 0.00
4:53 pm 16:53 Sunny 83 28.3 35 1.7 18 18 E 5 7 29.93 1013 10 16 0.00 0.00
5:53 pm 17:53 Sunny 81 27.2 36 2.2 20 20 S 6 9 29.92 1013 10 16 0.00 0.00
6:53 pm 18:53 Sunny 77 25 37 2.8 24 24 SSW 3 6 29.92 1013 10 16 0.00 0.00
7:53 pm 19:53 Clear 68 20 39 3.9 35 35 Calm 29.93 1014 10 16 0.00 0.00
8:53 pm 20:53 Clear 62 16.7 48 8.9 60 60 NE 3 6 29.96 1015 10 16 0.00 0.00
9:53 pm 21:53 Clear 60 15.6 44 6.7 56 56 ENE 3 6 29.98 1015 10 16 0.00 0.00
10:53 pm 22:53 Clear 57 13.9 44 6.7 62 62 W 5 7 29.99 1016 10 16 0.00 0.00
11:53 pm 23:53 Clear 54 12.2 45 7.2 72 72 NNW 3 6 30.00 1016 10 16 0.00 0.00

Powered by AerisWeather